TimeCST,TemperatureF,Dew PointF,Humidity,Sea Level PressureIn,VisibilityMPH,Wind Direction,Wind SpeedMPH,Gust SpeedMPH,PrecipitationIn,Events,Conditions,WindDirDegrees,DateUTC
12:53 AM,17.1,14.0,88,29.76,8.0,SSE,13.8,-,0.01,Snow,Light Snow,150,2014-02-17 06:53:00
1:53 AM,18.0,14.0,84,29.74,3.0,South,13.8,-,0.00,Snow,Light Snow,170,2014-02-17 07:53:00
1:59 AM,17.6,14.0,86,29.68,1.8,South,12.7,-,0.00,Snow,Light Snow,170,2014-02-17 07:59:00
2:12 AM,17.6,15.8,93,29.67,3.0,South,13.8,-,0.01,Snow,Light Snow,170,2014-02-17 08:12:00
2:53 AM,18.0,15.1,88,29.71,1.8,South,12.7,-,0.02,Snow,Light Snow,180,2014-02-17 08:53:00
3:05 AM,17.6,15.8,93,29.65,2.0,South,13.8,-,0.01,Snow,Light Snow,170,2014-02-17 09:05:00
3:13 AM,17.6,15.8,93,29.64,1.5,South,12.7,-,0.01,Snow,Light Snow,170,2014-02-17 09:13:00
3:22 AM,17.6,15.8,93,29.64,1.0,South,13.8,-,0.02,Snow,Light Snow,180,2014-02-17 09:22:00
3:40 AM,17.6,15.8,93,29.64,0.8,South,13.8,-,0.03,Snow,Light Snow,190,2014-02-17 09:40:00
3:53 AM,18.0,15.1,88,29.69,1.0,South,18.4,-,0.04,Snow,Light Snow,180,2014-02-17 09:53:00
4:13 AM,19.4,15.8,86,29.63,1.0,South,18.4,-,0.01,Snow,Light Snow,180,2014-02-17 10:13:00
4:23 AM,19.4,15.8,86,29.63,0.8,South,18.4,-,0.02,Snow,Light Snow,190,2014-02-17 10:23:00
4:49 AM,19.4,15.8,86,29.61,1.2,South,17.3,-,0.04,Snow,Light Snow,180,2014-02-17 10:49:00
4:53 AM,19.0,16.0,88,29.66,1.2,South,16.1,-,0.04,Snow,Light Snow,180,2014-02-17 10:53:00
5:06 AM,19.4,15.8,86,29.60,1.2,South,15.0,-,0.01,Snow,Light Snow,180,2014-02-17 11:06:00
5:31 AM,19.4,15.8,86,29.59,2.0,South,16.1,-,0.01,Snow,Light Snow,170,2014-02-17 11:31:00
5:48 AM,19.4,15.8,86,29.60,1.8,South,18.4,-,0.01,Snow,Light Snow,180,2014-02-17 11:48:00
5:53 AM,19.0,16.0,88,29.65,1.2,South,16.1,-,0.01,Snow,Light Snow,170,2014-02-17 11:53:00
6:53 AM,19.0,16.0,88,29.65,1.2,South,13.8,-,0.02,Snow,Light Snow,180,2014-02-17 12:53:00
7:25 AM,19.4,15.8,86,29.59,3.0,South,15.0,-,0.01,Snow,Light Snow,180,2014-02-17 13:25:00
7:53 AM,19.0,16.0,88,29.63,4.0,South,13.8,-,0.01,Snow,Light Snow,180,2014-02-17 13:53:00
8:40 AM,19.4,15.8,86,29.58,7.0,South,11.5,-,0.00,,Overcast,190,2014-02-17 14:40:00
8:53 AM,19.0,16.0,88,29.63,7.0,South,11.5,-,0.00,,Overcast,190,2014-02-17 14:53:00
9:53 AM,19.0,16.0,88,29.63,7.0,South,9.2,-,N/A,,Overcast,190,2014-02-17 15:53:00
10:53 AM,23.0,18.0,81,29.64,8.0,WSW,5.8,-,0.00,,Mostly Cloudy,250,2014-02-17 16:53:00
11:53 AM,28.0,21.0,75,29.64,10.0,WNW,9.2,-,N/A,,Scattered Clouds,290,2014-02-17 17:53:00
12:53 PM,30.9,21.9,69,29.63,10.0,WNW,10.4,-,N/A,,Partly Cloudy,290,2014-02-17 18:53:00
1:53 PM,32.0,24.1,73,29.62,10.0,WNW,4.6,-,N/A,,Partly Cloudy,290,2014-02-17 19:53:00
2:53 PM,33.1,24.1,70,29.62,10.0,West,3.5,-,N/A,,Clear,270,2014-02-17 20:53:00
3:53 PM,30.9,23.0,72,29.60,10.0,SSE,5.8,-,N/A,,Partly Cloudy,160,2014-02-17 21:53:00
4:53 PM,25.0,19.9,81,29.60,10.0,SSW,10.4,-,N/A,,Mostly Cloudy,200,2014-02-17 22:53:00
5:53 PM,23.0,18.0,81,29.58,10.0,South,11.5,-,N/A,,Mostly Cloudy,180,2014-02-17 23:53:00
6:53 PM,27.0,21.0,78,29.56,10.0,South,15.0,-,N/A,,Scattered Clouds,180,2014-02-18 00:53:00
7:53 PM,28.0,23.0,81,29.54,10.0,South,10.4,-,N/A,,Overcast,170,2014-02-18 01:53:00
8:53 PM,28.9,21.9,75,29.51,10.0,SSW,13.8,-,N/A,,Partly Cloudy,200,2014-02-18 02:53:00
9:53 PM,28.9,21.9,75,29.50,10.0,SSW,12.7,-,N/A,,Partly Cloudy,210,2014-02-18 03:53:00
10:53 PM,30.0,21.9,72,29.47,10.0,SW,13.8,-,N/A,,Mostly Cloudy,220,2014-02-18 04:53:00
11:53 PM,27.0,21.0,78,29.46,10.0,SSW,6.9,-,N/A,,Clear,200,2014-02-18 05:53:00